SES-4

Last updated on Sat May 17 2025 00:02:43 GMT+0000 (Coordinated Universal Time)

1 38087U 12007A 25136.37396294 -.00000154 00000+0 00000+0 0 9995 2 38087 0.0227 9.4588 0002433 57.5003 280.0069 1.00273068 48245
UTC large
Height (km)
Speed (km/s)
/
Latitude / Longitude
Inclination (degrees)
Orbital Period (minutes)
Azimuth
Elevation
Range (km)
Doppler Factor

Next 0 passes for location: London (51.5072 / 0.1276)

Sorry there are no passes over London.